Regional Weather Roundup
Issued by NWS Little Rock, AR

Home | Current Version | Previous Version | Text Only | Print | Product List | Glossary On
Versions: 1 2 3 4 5 6 7 8 9 10 11 12 13 14 15 16 17 18 19 20 21 22 23 24 25 26 27 28 29 30 31 32 33 34 35 36 37 38 39 40 41 42 43 44 45 46 47 48 49 50
000
ASUS44 KLZK 221815
RWRLZK

WEATHER ROUNDUP FOR ARKANSAS
NATIONAL WEATHER SERVICE LITTLE ROCK AR
100 PM CDT SUN APR 22 2018

NOTE: "FAIR" INDICATES FEW OR NO CLOUDS BELOW 12,000 FEET WITH NO
SIGNIFICANT WEATHER AND/OR OBSTRUCTIONS TO VISIBILITY.

ARZ001-003-010-029-221900-
NORTHWEST ARKANSAS

CITY           SKY/WX    TMP DP  RH WIND       PRES   REMARKS
FAYETTEVILLE   CLOUDY    51  51 100 W6        29.96F FOG
6HR MIN TEMP:  50; 6HR MAX TEMP:  53; 6HR PCP:  0.04;

FORT SMITH     CLOUDY    53  50  89 W13       29.97F
6HR MIN TEMP:  51; 6HR MAX TEMP:  53;

HARRISON       CLOUDY    55  52  89 CALM      29.95S
6HR MIN TEMP:  51; 6HR MAX TEMP:  55; 6HR PCP:  0.46;

BENTONVILLE    CLOUDY    53  50  89 NW5       29.97S
6HR MIN TEMP:  51; 6HR MAX TEMP:  53; 6HR PCP:  0.05;

ROGERS         CLOUDY    53  51  93 NW5       29.96S
6HR MIN TEMP:  50; 6HR MAX TEMP:  54; 6HR PCP:  0.13;

SILOAM SPGS    CLOUDY    52  50  93 NW6       29.97R
6HR MIN TEMP:  49; 6HR MAX TEMP:  53;

HIGHFILL       CLOUDY    53  51  93 CALM      29.96R
6HR MIN TEMP:  51; 6HR MAX TEMP:  54; 6HR PCP:  0.10;

SPRINGDALE     CLOUDY    52  52 100 W5        29.97S
$$

ARZ004-005-016-221900-
NORTH CENTRAL ARKANSAS

CITY           SKY/WX    TMP DP  RH WIND       PRES   REMARKS
BATESVILLE     LGT RAIN  58  56  93 NE6       29.91F FOG
6HR MIN TEMP:  57; 6HR MAX TEMP:  58; 6HR PCP:  0.09;

FLIPPIN        LGT RAIN  54  53  97 CALM      29.95F
6HR MIN TEMP:  52; 6HR MAX TEMP:  56;

MTN HOME       LGT RAIN  53  53 100 E8        29.93F
6HR MIN TEMP:  51; 6HR MAX TEMP:  54; 6HR PCP:  1.02;

$$

ARZ040-041-221900-
WEST CENTRAL ARKANSAS

CITY           SKY/WX    TMP DP  RH WIND       PRES   REMARKS
MENA           CLOUDY    57  54  88 W12       29.97F
MOUNT IDA      CLOUDY    57  52  83 N6        29.92F
6HR MIN TEMP:  55; 6HR MAX TEMP:  57; 6HR PCP: TRACE;

$$

ARZ009-017-025-026-028-221900-
NORTHEAST ARKANSAS

CITY           SKY/WX    TMP DP  RH WIND       PRES   REMARKS
CORNING        FOG       54  54 100 NE23      29.92F VSB 3/4
JONESBORO      HVY RAIN  59  59 100 E15       29.87F FOG
6HR MIN TEMP:  56; 6HR MAX TEMP:  59; 6HR PCP:  0.74;

NEWPORT        LGT RAIN  59  57  93 NE12      29.89F
6HR MIN TEMP:  57; 6HR MAX TEMP:  59; 6HR PCP:  0.01;

WALNUT RIDGE   RAIN      55  54  96 NE16      29.90F FOG
6HR MIN TEMP:  55; 6HR MAX TEMP:  57; 6HR PCP:  0.43;

BLYTHEVILLE    CLOUDY    58  56  93 E21G26    29.93F
6HR MIN TEMP:  56; 6HR MAX TEMP:  58; 6HR PCP:  0.85;

$$

ARZ022-023-033-042-044-221900-
CENTRAL ARKANSAS

CITY           SKY/WX    TMP DP  RH WIND       PRES   REMARKS
LITTLE ROCK    CLOUDY    61  58  90 NW9       29.91F
6HR MIN TEMP:  57; 6HR MAX TEMP:  61; 6HR PCP:  0.03;

N LITTLE ROCK    N/A     59  57  94 NW6       29.88F
6HR MIN TEMP:  56; 6HR MAX TEMP:  59;

JACKSONVILLE   CLOUDY    60  59  99 NW7       29.90F
6HR MIN TEMP:  58; 6HR MAX TEMP:  62; 6HR PCP:  0.01;

CONWAY         CLOUDY    63  59  88 NW8       29.91F
SEARCY         TSTM      61  61 100 VRB6      29.90S FOG
6HR MIN TEMP:  60; 6HR MAX TEMP:  65;

HOT SPRINGS    CLOUDY    61  55  81 VRB6      29.93F
6HR MIN TEMP:  58; 6HR MAX TEMP:  63; 6HR PCP: TRACE;

RUSSELLVILLE   CLOUDY    60  55  83 NW9       29.92F
6HR MIN TEMP:  56; 6HR MAX TEMP:  60; 6HR PCP:  0.08;

CLINTON        CLOUDY    59  55  88 N5        29.93S
$$

ARZ036-221900-
EAST ARKANSAS

CITY           SKY/WX    TMP DP  RH WIND       PRES   REMARKS
WEST MEMPHIS   PTSUNNY   65  62  90 S18       29.89S
6HR MIN TEMP:  58; 6HR MAX TEMP:  65; 6HR PCP:  0.57;

$$

ARZ050-053-066-070-073-221900-
SOUTHWEST ARKANSAS

CITY           SKY/WX    TMP DP  RH WIND       PRES   REMARKS
ARKADELPHIA    CLOUDY    63  57  81 NW8       29.94S
6HR MIN TEMP:  58; 6HR MAX TEMP:  64; 6HR PCP: TRACE;

CAMDEN         CLOUDY    64  57  77 W9        29.92S
TEXARKANA      CLOUDY    56  51  84 W14       29.98F
6HR MIN TEMP:  55; 6HR MAX TEMP:  58;

EL DORADO      CLOUDY    63  59  87 W9        29.93F
6HR MIN TEMP:  58; 6HR MAX TEMP:  64; 6HR PCP: TRACE;

DE QUEEN       CLOUDY    57  51  80 W10       29.97S
6HR MIN TEMP:  55; 6HR MAX TEMP:  58;

$$

ARZ056-057-069-221900-
SOUTHEAST ARKANSAS

CITY           SKY/WX    TMP DP  RH WIND       PRES   REMARKS
PINE BLUFF     CLOUDY    66  59  78 W7        29.89F
6HR MIN TEMP:  60; 6HR MAX TEMP:  65; 6HR PCP:  0.01;

STUTTGART      CLOUDY    67  60  78 W13       29.89F
6HR MIN TEMP:  61; 6HR MAX TEMP:  68; 6HR PCP: TRACE;

MONTICELLO     CLOUDY    66  60  81 W6        29.89F
6HR MIN TEMP:  60; 6HR MAX TEMP:  66; 6HR PCP: TRACE;


$$





USA.gov is the U.S. government's official web portal to all federal, state and local government web resources and services.